This is the latest recevied weather packets stored in our database for station/object W4KUS-10. If no packets are shown the sender has not sent any weather packets the latest 1 day(s).
| Time | Temp. | Humidity | Pressure | Rain* | Wind** | Luminosity | Snow |
|---|---|---|---|---|---|---|---|
| 1778100340 | 29.44° C | 43% | 1012.8 hPa | 0 mm | - | - | - |
| 1778099140 | 29.44° C | 41% | 1014 hPa | 0 mm | - | - | - |
| 1778097340 | 29.44° C | 40% | 1013.9 hPa | 0 mm | - | - | - |
| 1778097040 | 29.44° C | 40% | 1013.9 hPa | 0 mm | - | - | - |
| 1778096140 | 29.44° C | 39% | 1014.1 hPa | 0 mm | - | - | - |
| 1778095840 | 29.44° C | 39% | 1014.1 hPa | 0 mm | - | - | - |
| 1778094340 | 29.44° C | 41% | 1014.8 hPa | 0 mm | - | - | - |
| 1778094040 | 29.44° C | 40% | 1014.9 hPa | 0 mm | - | - | - |
| 1778093740 | 30° C | 41% | 1014.9 hPa | 0 mm | - | - | - |
| 1778093440 | 29.44° C | 41% | 1015 hPa | 0 mm | - | - | - |
| 1778093140 | 29.44° C | 42% | 1015 hPa | 0 mm | - | - | - |
| 1778092840 | 30° C | 41% | 1015.1 hPa | 0 mm | - | - | - |
| 1778092540 | 30° C | 42% | 1015 hPa | 0 mm | - | - | - |
| 1778092240 | 30° C | 41% | 1015 hPa | 0 mm | - | - | - |
| 1778091940 | 30° C | 42% | 1014.9 hPa | 0 mm | - | - | - |
| 1778091640 | 30° C | 43% | 1014.9 hPa | 0 mm | - | - | - |
| 1778091340 | 29.44° C | 43% | 1014.9 hPa | 0 mm | - | - | - |
| 1778091040 | 29.44° C | 41% | 1015 hPa | 0 mm | - | - | - |
| 1778090740 | 29.44° C | 42% | 1015 hPa | 0 mm | - | - | - |
| 1778090440 | 29.44° C | 40% | 1014.9 hPa | 0 mm | - | - | - |
| 1778090140 | 28.89° C | 42% | 1015 hPa | 0 mm | - | - | - |
| 1778089540 | 28.33° C | 44% | 1015.3 hPa | 0 mm | - | - | - |
| 1778089240 | 28.33° C | 44% | 1015.3 hPa | 0 mm | - | - | - |
| 1778088940 | 28.89° C | 44% | 1015.4 hPa | 0 mm | - | - | - |
| 1778088640 | 28.89° C | 45% | 1015.4 hPa | 0 mm | - | - | - |
* Rain latest hour (hover to see other rain measurements)
** Current wind speed in m/s (hover to see current wind gust speed)